This demonstration page uses our WeatherBlox Daily Observations layout. Learn more.

Hourly Observations for April 7, 2019

Temp ( °F °C ) Dew Point ( °F °C ) Humidity (%) Winds ( mph kmh ) Pressure ( in mb ) Visibility ( mi km ) Precip ( " mm )
12:15 am 00:15 Partly Cloudy 57 14 55 12.6 91 91 S 22 35 29.75 1007 10 16.0934 0 0
12:35 am 00:35 Partly Cloudy 57 14 54 12.4 90 90 SSE 12 19 29.76 1008 10 16.0934 0 0
12:55 am 00:55 Mostly Cloudy 57 13.7 53 11.8 88 88 ESE 12 19 29.79 1009 10 16.0934 0 0
1:15 am 01:15 Partly Cloudy with Nearby Thunderstorms 56 13.6 53 11.9 90 90 SSE 9 15 29.77 1008 10 16.0934 0 0
1:35 am 01:35 Clear 55 12.6 53 11.6 94 94 S 9 15 29.79 1009 10 16.0934 0 0
1:55 am 01:55 Clear 55 12.7 53 11.6 93 93 S 13 20 29.78 1008 10 16.0934 0 0
2:15 am 02:15 Clear 55 12.8 53 11.6 92 92 S 15 24 29.77 1008 10 16.0934 0 0
2:35 am 02:35 Clear 54 12.4 53 11.4 94 94 S 15 24 29.76 1008 10 16.0934 0 0
2:55 am 02:55 Clear 55 12.6 53 11.5 93 93 S 15 24 29.75 1007 10 16.0934 0 0
3:15 am 03:15 Clear 54 12.2 52 11.2 94 94 S 16 26 29.76 1008 10 16.0934 0 0
3:35 am 03:35 Clear 54 12.2 52 11 92 92 SSW 13 20 29.76 1008 10 16.0934 0 0
3:55 am 03:55 Clear 54 12 51 10.8 92 92 SW 12 19 29.76 1008 10 16.0934 0 0
4:15 am 04:15 Clear 53 11.5 51 10.7 95 95 SW 12 19 29.77 1008 10 16.0934 0 0
4:35 am 04:35 Clear 52 11 51 10.3 95 95 SW 9 15 29.77 1008 10 16.0934 0 0
4:55 am 04:55 Clear 51 10.5 50 10.1 97 97 SW 9 15 29.79 1009 10 16.0934 0 0
5:15 am 05:15 Clear 50 10 49 9.7 98 98 SW 5 7 29.79 1009 10 16.0934 0 0
5:35 am 05:35 Clear 49 9.7 49 9.3 97 97 WSW 7 11 29.8 1009 10 16.0934 0 0
5:55 am 05:55 Clear 50 9.8 48 9 95 95 W 8 13 29.79 1009 10 16.0934 0 0
6:15 am 06:15 Clear 49 9.5 47 8.4 93 93 W 12 19 29.82 1010 10 16.0934 0 0
6:35 am 06:35 Clear 48 8.8 45 7.3 90 90 W 10 17 29.82 1010 10 16.0934 0 0
6:55 am 06:55 Clear 48 8.9 44 6.6 86 86 W 13 20 29.84 1011 10 16.0934 0 0
7:15 am 07:15 Sunny 47 8.3 43 6.1 86 86 WNW 9 15 29.85 1011 10 16.0934 0 0
7:35 am 07:35 Sunny 48 8.9 42 5.5 79 79 NW 16 26 29.86 1011 10 16.0934 0 0
7:55 am 07:55 Sunny 50 9.8 43 6.3 79 79 NW 17 28 29.86 1011 10 16.0934 0 0
8:15 am 08:15 Sunny 50 10.1 45 7.1 82 82 NNW 17 28 29.88 1012 10 16.0934 0 0
8:35 am 08:35 Sunny 52 10.9 47 8.4 85 85 NNW 20 31 29.89 1012 10 16.0934 0 0
8:55 am 08:55 Sunny 53 11.9 48 8.9 82 82 NNW 20 31 29.9 1012 10 16.0934 0 0
9:15 am 09:15 Sunny 55 12.6 48 9 79 79 NNW 18 30 29.91 1013 10 16.0934 0 0
9:35 am 09:35 Sunny 56 13.5 48 9 74 74 N 14 22 29.89 1012 10 16.0934 0 0
9:55 am 09:55 Sunny 58 14.5 48 9.1 70 70 NNW 16 26 29.9 1013 10 16.0934 0 0
10:15 am 10:15 Sunny 59 15.2 48 9 67 67 NNW 17 28 29.91 1013 10 16.0934 0 0
10:35 am 10:35 Sunny 61 15.9 47 8.4 61 61 NNW 21 33 29.91 1013 10 16.0934 0 0
10:55 am 10:55 Sunny 62 16.5 45 7.2 54 54 NNW 21 33 29.93 1013 10 16.0934 0 0
11:15 am 11:15 Sunny 63 17.1 45 7.4 53 53 NNW 23 37 29.93 1014 10 16.0934 0 0
11:35 am 11:35 Sunny 64 17.7 45 7.3 51 51 NNW 21 33 29.94 1014 10 16.0934 0 0
11:55 am 11:55 Sunny 64 17.9 44 6.6 48 48 N 21 33 29.93 1014 10 16.0934 0 0
12:15 pm 12:15 Sunny 65 18.6 44 6.7 46 46 NNW 17 28 29.92 1013 10 16.0934 0 0
12:35 pm 12:35 Partly Cloudy 66 18.7 43 6.3 45 45 NNW 17 28 29.93 1013 10 16.0934 0 0
12:55 pm 12:55 Partly Cloudy 66 19.1 42 5.6 41 41 NNW 18 30 29.92 1013 10 16.0934 0 0
1:15 pm 13:15 Sunny 67 19.5 41 5.2 39 39 NNW 16 26 29.92 1013 10 16.0934 0 0
1:35 pm 13:35 Sunny 68 20 42 5.5 39 39 NW 21 33 29.92 1013 10 16.0934 0 0
1:55 pm 13:55 Sunny 69 20.3 38 3.6 33 33 NNW 18 30 29.9 1013 10 16.0934 0 0
2:15 pm 14:15 Sunny 69 20.5 37 2.8 31 31 N 17 28 29.88 1012 10 16.0934 0 0
2:35 pm 14:35 Sunny 70 21.2 36 2.4 29 29 NNW 22 35 29.88 1012 10 16.0934 0 0
2:55 pm 14:55 Sunny 70 21.2 34 1 26 26 NNW 13 20 29.89 1012 10 16.0934 0 0
3:15 pm 15:15 Sunny 71 21.7 35 1.6 27 27 NW 18 30 29.87 1012 10 16.0934 0 0
3:35 pm 15:35 Sunny 72 22 34 1 25 25 N 20 31 29.87 1012 10 16.0934 0 0
3:55 pm 15:55 Sunny 71 21.6 33 0.6 25 25 N 16 26 29.87 1012 10 16.0934 0 0
4:15 pm 16:15 Sunny 72 22.1 33 0.5 24 24 N 13 20 29.87 1012 10 16.0934 0 0
4:35 pm 16:35 Sunny 72 22 31 -0.5 22 22 NNW 16 26 29.87 1012 10 16.0934 0 0
4:55 pm 16:55 Sunny 72 22 31 -0.6 22 22 NNW 9 15 29.87 1012 10 16.0934 0 0
5:15 pm 17:15 Sunny 72 22.1 32 -0.2 23 23 N 13 20 29.86 1011 10 16.0934 0 0
5:35 pm 17:35 Sunny 71 21.8 31 -0.8 22 22 N 7 11 29.87 1012 10 16.0934 0 0
5:55 pm 17:55 Sunny 71 21.7 30 -1 22 22 NNW 7 11 29.87 1012 10 16.0934 0 0
6:15 pm 18:15 Sunny 71 21.6 30 -1.2 22 22 NNW 7 11 29.87 1012 10 16.0934 0 0
6:35 pm 18:35 Sunny 70 21.3 30 -1.1 22 22 N 7 11 29.88 1012 10 16.0934 0 0
6:55 pm 18:55 Sunny 70 21 30 -1.1 23 23 NNW 3 6 29.88 1012 10 16.0934 0 0
7:15 pm 19:15 Sunny 69 20.5 32 0.2 26 26 N 7 11 29.88 1012 10 16.0934 0 0
7:35 pm 19:35 Sunny 67 19.5 33 0.4 28 28 N 5 7 29.89 1012 10 16.0934 0 0
7:55 pm 19:55 Sunny 64 18 32 0.1 30 30 N 6 9 29.9 1013 10 16.0934 0 0
8:15 pm 20:15 Clear 59 15.2 33 0.6 37 37 Calm 29.93 1013 10 16.0934 0 0
8:35 pm 20:35 Clear 58 14.6 33 0.6 39 39 Calm 29.93 1014 10 16.0934 0 0
8:55 pm 20:55 Clear 54 12 34 1.2 48 48 Calm 29.96 1014 10 16.0934 0 0
9:15 pm 21:15 Clear 54 12.1 35 1.4 48 48 Calm 29.95 1014 10 16.0934 0 0
9:35 pm 21:35 Clear 55 12.7 34 1.1 45 45 Calm 29.95 1014 10 16.0934 0 0
9:55 pm 21:55 Clear 52 11.2 36 2.2 54 54 Calm 29.96 1015 10 16.0934 0 0
10:15 pm 22:15 Clear 51 10.5 37 2.8 59 59 Calm 29.98 1015 10 16.0934 0 0
10:35 pm 22:35 Clear 53 11.6 35 1.4 50 50 S 3 6 29.98 1015 10 16.0934 0 0
10:55 pm 22:55 Clear 52 11.2 35 1.6 52 52 SSE 7 11 29.98 1015 10 16.0934 0 0
11:15 pm 23:15 Clear 52 11 35 1.9 54 54 S 7 11 29.98 1015 10 16.0934 0 0
11:35 pm 23:35 Clear 50 9.9 36 2.1 59 59 SSE 7 11 30 1016 10 16.0934 0 0
11:55 pm 23:55 Clear 49 9.4 36 2 60 60 S 6 9 30.01 1016 10 16.0934 0 0

Powered by AerisWeather